Location: Newark
(40.7636°N, 73.9728°W)
Time: 15:13:43
(UTC+00:00)

ISS - Pass Details

Date: 22 September 2019
Orbit: 411 x 421 km, 51.6° (Epoch: 16 October)

Event Time Altitude Azimuth Distance (km) Brightness Sun altitude
Rises 00:46:48 0° 260° (W) 2,336 1.0 -21.5°
Reaches altitude 10° 00:49:04 10° 273° (W) 1,476 0.0 -21.9°
Maximum altitude 00:51:59 28° 335° (NNW) 804 -1.9 -22.5°
Enters shadow 00:52:41 26° 358° (N) 856 -2.0 -22.6°
